Regional Weather Roundup
Issued by NWS Albany, NY

Home | Current Version | Previous Version | Graphics & Text | Print | Product List | Glossary Off
Versions: 1 2 3 4 5 6 7 8 9 10 11 12 13 14 15 16 17 18 19 20 21 22 23 24 25 26 27 28

000
ASUS41 KALY 230210
RWRALY

NEW YORK STATE HOURLY WEATHER ROUNDUP
NATIONAL WEATHER SERVICE ALBANY NY
1000 PM EDT MON AUG 22 2016

NOTE: "FAIR" INDICATES FEW OR NO CLOUDS BELOW 12,000 FEET WITH NO
SIGNIFICANT WEATHER AND/OR NO OBSTRUCTIONS TO VISIBILITY.

NYZ032-033-038>043-046>054-057>066-NYZ062>081-082-084-230300-
EAST


CITY           SKY/WX    TMP DP  RH WIND       PRES   REMARKS
ALBANY         CLEAR     60  48  64 W8        30.17R
GLENS FALLS    CLEAR     55  51  86 S3        30.16R
POUGHKEEPSIE   CLEAR    N/A N/A N/A MISG      30.17R
NEWBURGH       CLEAR     63  50  63 NW6       30.20R
MONTGOMERY     CLEAR     58  52  80 S3        30.20R
WHITE PLAINS   CLEAR     64  47  53 NW5       30.18R
ISLIP          CLEAR     68  49  50 N9        30.16R
NEW YORK CITY  CLEAR     72  48  42 NW15      30.16R
CENTRAL PARK   CLEAR     70  47  43 N5        30.21R
$$

NYZ005>009-017-018-044>046-055-056-230300-
CENTRAL


CITY           SKY/WX    TMP DP  RH WIND       PRES   REMARKS
FULTON         CLEAR     55  53  93 CALM      30.19R
SYRACUSE       MOCLDY    64  51  62 SW3       30.18R
ROME           CLEAR     56  52  86 CALM      30.20R
ELMIRA         CLEAR     57  52  83 SW6       30.21R
BINGHAMTON     CLEAR     60  47  61 N3        30.22R
MONTICELLO     CLEAR     55  46  71 CALM      30.23R
$$

NYZ026>034-041>043-087-230300-
NORTH


CITY           SKY/WX    TMP DP  RH WIND       PRES   REMARKS
WATERTOWN      CLEAR     56  52  86 CALM      30.16R
FORT DRUM      NOT AVBL
MASSENA        CLEAR     58  52  80 SW6       30.14R
SARANAC LAKE   CLEAR     48  45  89 CALM      30.16R
PLATTSBURGH    CLEAR     59  50  72 W5        30.12R
$$

NYZ001>004-010>016-019>021-085-230300-
WEST


CITY           SKY/WX    TMP DP  RH WIND       PRES   REMARKS
NIAGARA FALLS  PTCLDY    63  49  60 W6        30.20R
BUFFALO        PTCLDY    67  55  65 NW7       30.20R
DUNKIRK        PTCLDY    63  55  75 S6        30.22R
JAMESTOWN      CLEAR     61  48  63 W6        30.25R
WELLSVILLE     CLEAR     56  48  74 W5        30.27R
ROCHESTER      PTCLDY    63  56  78 S3        30.20R
PENN YAN       MOCLDY    61  53  75 CALM      30.22R
$$

             KEY
       WCI = WIND CHILL INDEX
       VSB = VISIBILITY
       HX  = HEAT INDEX
$$




USA.gov is the U.S. government's official web portal to all federal, state and local government web resources and services.